This is the latest recevied weather packets stored in our database for station/object K1KOF. If no packets are shown the sender has not sent any weather packets the latest 10 day(s).
| Time | Temp. | Humidity | Pressure | Rain* | Wind** | Luminosity | Snow |
|---|---|---|---|---|---|---|---|
| 1777896134 | 10° C | 97% | 1028.3 hPa | 0 mm | - | 38 W/m² | - |
| 1777895832 | 10° C | 99% | 1028.3 hPa | 0 mm | - | 37 W/m² | - |
| 1777895529 | 9.44° C | 99% | 1028.5 hPa | 0 mm | - | 38 W/m² | - |
| 1777895227 | 9.44° C | 99% | 1028.5 hPa | 0 mm | - | 34 W/m² | - |
| 1777894924 | 9.44° C | 99% | 1028.4 hPa | 0 mm | - | 32 W/m² | - |
| 1777894621 | 8.89° C | 99% | 1028.3 hPa | 0 mm | - | 29 W/m² | - |
| 1777894318 | 8.89° C | 99% | 1028.1 hPa | 0 mm | - | 27 W/m² | - |
| 1777894015 | 8.89° C | 99% | 1028.2 hPa | 0 mm | - | 26 W/m² | - |
| 1777893711 | 8.33° C | 99% | 1028.1 hPa | 0 mm | - | 28 W/m² | - |
| 1777893408 | 7.78° C | 99% | 1028.2 hPa | 0 mm | - | 23 W/m² | - |
| 1777893104 | 7.78° C | 99% | 1028.2 hPa | 0 mm | - | 21 W/m² | - |
| 1777892801 | 7.78° C | 99% | 1028 hPa | 0 mm | - | 17 W/m² | - |
| 1777892497 | 7.78° C | 99% | 1028.4 hPa | 0 mm | - | 15 W/m² | - |
| 1777892193 | 7.78° C | 99% | 1028 hPa | 0 mm | - | 10 W/m² | - |
| 1777891890 | 7.22° C | 99% | 1028 hPa | 0 mm | - | 7 W/m² | - |
| 1777891587 | 7.78° C | 99% | 1027.9 hPa | 0 mm | - | 4 W/m² | - |
| 1777891284 | 7.78° C | 99% | 1028 hPa | 0 mm | - | 1 W/m² | - |
| 1777890984 | 7.78° C | 98% | 1028 hPa | 0 mm | - | 0 W/m² | - |
| 1777890679 | 7.78° C | 98% | 1027.9 hPa | 0 mm | - | 0 W/m² | - |
| 1777890375 | 7.78° C | 98% | 1027.9 hPa | 0 mm | - | 0 W/m² | - |
| 1777890070 | 7.78° C | 98% | 1027.8 hPa | 0 mm | - | 0 W/m² | - |
| 1777889768 | 7.78° C | 98% | 1028 hPa | 0 mm | - | 0 W/m² | - |
| 1777889466 | 7.78° C | 97% | 1027.9 hPa | 0 mm | - | 0 W/m² | - |
| 1777889163 | 8.33° C | 97% | 1028 hPa | 0 mm | - | 0 W/m² | - |
| 1777888862 | 8.33° C | 97% | 1027.9 hPa | 0 mm | - | 0 W/m² | - |
* Rain latest hour (hover to see other rain measurements)
** Current wind speed in m/s (hover to see current wind gust speed)